星链-3647 (STARLINK-3647 )

导读 | 豆包AI

STARLINK-3647是美国SpaceX公司星链星座的成员卫星,于2022年3月9日发射升空,属于星链星座中低轨宽带互联网卫星部署批次。作为全球最大低轨卫星星座的组成部分,它运行在近地轨道,为全球提供高速宽带互联网服务,尤其弥补偏远地区网络覆盖空白,也持续拓展星链星座全球互联的服务能力。

基本信息
目录编号:
51994
目录名称:
STARLINK-3647
国际标识:
2022-025AQ
轨道中心:
EARTH
卫星名称:
星链-3647
卫星全名:
星链-3647 (STARLINK-3647 )
卫星状态:
在轨 (已飞行1514 天)
发射日期:
2022-03-09 UTC
国别 :
美国 (US)
星等 :
--
轨道信息
数据来源 国际轨道数据
星历时间: 2026-04-30T17:33:51+0800
16小时前
查看轨道信息
半长轴: 6917.882km
偏心率: 0.000117
轨道倾角: 53.216°
近地点辐角 84.453°
升交点赤经 146.992°
平近点角 275.659°
近地点: 538.935km
远地点: 540.555km
周期: 95.438分钟
每日圈数: 15.088397
详细信息
固有亮度:
5
最大亮度:
2.5
卫星平台:
Starlink v1.5
覆盖范围:
全球
运营商:
太空探索技术公司
运营商所在国:
美国
制造商(研发单位):
太空探索技术公司
制造商所在国:
美国
使用方式:
暂无
卫星简介
星链(Starlink)计划是由太空探索技术公司(SpaceX)提出的一个巨型低轨卫星互联网星座项目,计划在2019年至2024年间在太空搭建由约1.2万颗卫星组成的“星链”网络,其中1584颗将部署在地球上空550千米处的近地轨道,并从2020年开始工作。该卫星仍在工作。
2D轨道图
3D轨道图
轨道高度分析图
轨道倾角分析图
轨道综合分析图
查看轨道综合分析图